Tracking 20093 objects as of 14-Dec-2019
HD Live streaming from Space Station
objects crossing your sky now

COSMOS 2251 DEB

Track COSMOS 2251 DEB now!
10-day predictions


NORAD ID: 33770
Int'l Code: 1993-036T
Perigee: 684.8 km
Apogee: 735.3 km
Inclination: 74.0 °
Period: 98.8 minutes
Semi major axis: 7081 km
RCS: 0.0981 m2 (small)
Launch date: June 16, 1993
Source: Commonwealth of Independent States (former USSR) (CIS)
Launch site: PLESETSK MISSILE AND SPACE COMPLEX (PKMTR)

Note: This is SATELLITE DEBRIS
aabbcc
Your satellite tracking list
Your tracking list is empty




NASA's NSSDC Master Catalog

Two Line Element Set (TLE):
1 33770U 93036T   19347.85156106 +.00000941 +00000-0 +21404-3 0  9995
2 33770 074.0307 188.9033 0035611 096.7650 276.7952 14.56992237571205
Source of the keplerian elements: AFSPC